Printer-friendly version

IAU Minor Planet Center

Minor Planet Center

MPEC 2000-F27: 2000 EZ106

The following Minor Planet Electronic Circular may be linked-to from your own Web pages, but must not otherwise be redistributed electronically.


Read MPEC 2000-F26 Read MPEC 2000-F28


M.P.E.C. 2000-F27                                Issued 2000 Mar. 23, 23:50 UT

     The Minor Planet Electronic Circulars contain information on unusual
         minor planets and routine data on comets.  They are published
   on behalf of Commission 20 of the International Astronomical Union by the
          Minor Planet Center, Smithsonian Astrophysical Observatory,
                          Cambridge, MA 02138, U.S.A.

             Prepared using the Tamkin Foundation Computer Network

             BMARSDEN@CFA.HARVARD.EDU or GWILLIAMS@CFA.HARVARD.EDU
          URL http://cfa-www.harvard.edu/iau/mpc.html  ISSN 1523-6714

                                  2000 EZ106

Observations:
     K00EA6Z* C2000 03 12.36681 13 44 02.42 +13 31 34.4          16.9 R      699
     K00EA6Z  C2000 03 12.38729 13 43 51.23 +13 30 09.7                      699
     K00EA6Z  C2000 03 12.40778 13 43 39.98 +13 28 45.1                      699
     K00EA6Z  C2000 03 12.42821 13 43 28.65 +13 27 19.6                      699
     K00EA6Z  C2000 03 17.31265 12 35 27.61 +03 53 40.1          15.8 R      699
     K00EA6Z  C2000 03 17.32032 12 35 17.69 +03 52 14.4                      699
     K00EA6Z  C2000 03 17.32796 12 35 07.80 +03 50 48.5                      699
     K00EA6Z  C2000 03 17.33561 12 34 57.88 +03 49 23.0                      699
     K00EA6Z 4C2000 03 19.19958 11 48 18.31 -03 07 45.3          15.6 R      688
     K00EA6Z 4C2000 03 19.20073 11 48 16.08 -03 08 08.2          15.0 R      688
     K00EA6Z  C2000 03 19.28724 11 45 40.51 -03 30 47.9                      670
     K00EA6Z  C2000 03 19.32987 11 44 22.38 -03 42 06.5                      670
     K00EA6Z  C2000 03 19.38898 11 42 33.16 -03 57 52.0                      670
     K00EA6Z  C2000 03 20.65941 11 00 10.61 -10 02 29.2          16.3 V      402
     K00EA6Z  C2000 03 20.65988 11 00 09.49 -10 02 37.6                      402
     K00EA6Z  C2000 03 20.66037 11 00 08.50 -10 02 46.1                      402
     K00EA6Z  C2000 03 20.66086 11 00 07.43 -10 02 54.3                      402
     K00EA6Z  C2000 03 21.80888 10 16 05.88 -15 48 11.0          15.3 R      046
     K00EA6Z  C2000 03 21.80939 10 16 04.62 -15 48 20.8                      046
     K00EA6Z  C2000 03 21.81120 10 16 00.17 -15 48 52.6                      046
     K00EA6Z  C2000 03 21.81185 10 15 58.62 -15 49 03.7                      046
     K00EA6Z  C2000 03 21.81253 10 15 56.91 -15 49 15.6                      046
     K00EA6Z  C2000 03 22.78860 09 36 00.36 -20 18 37.7                      108
     K00EA6Z  C2000 03 22.78988 09 35 57.16 -20 18 54.9                      108
     K00EA6Z  C2000 03 22.79149 09 35 53.58 -20 19 12.8                      108
     K00EA6Z  C2000 03 22.82870 09 34 19.52 -20 28 48.1                      108
     K00EA6Z  C2000 03 22.82969 09 34 17.54 -20 29 02.4                      108
     K00EA6Z  C2000 03 22.83073 09 34 14.53 -20 29 18.1          16.5 V      108
     K00EA6Z  C2000 03 22.83745 09 33 56.81 -20 31 04.5                      118
     K00EA6Z  C2000 03 22.83811 09 33 55.17 -20 31 15.2                      118
     K00EA6Z  C2000 03 22.83934 09 33 52.19 -20 31 33.2                      118
     K00EA6Z  C2000 03 22.83973 09 33 51.47 -20 31 38.3          16.1 R      046
     K00EA6Z  C2000 03 22.84060 09 33 49.32 -20 31 51.9                      046
     K00EA6Z  C2000 03 22.84069 09 33 48.68 -20 31 53.7                      118
     K00EA6Z  C2000 03 22.84097 09 33 48.35 -20 31 57.8                      046
     K00EA6Z  C2000 03 22.84174 09 33 46.39 -20 32 09.1                      046
     K00EA6Z  C2000 03 22.84229 09 33 45.09 -20 32 17.9          15.9 R      046

Observer details:
046 Klet.  Observers M. Tichy, Z. Moravec.  0.57-m f/5.2 reflector + CCD.
108 Montelupo.  Observers M. Tombelli, A. Boattini, L. Tesi, D. Guidetti,
    G. Forti, E. Masotti.  Measurers M. Tombelli, A. Boattini, L. Tesi,
    S. Bartolini, G. Forti.  0.30-m f/5.7 Schmidt-Cassegrain + CCD.
118 Modra.  Observers L. Kornos, J. Toth.  0.6-m f/5.5 reflector + CCD.
402 Dynic Astronomical Observatory.  Observer A. Sugie.  0.60-m f/3.7 reflector
    + CCD.
670 Camarillo.  Observer J. E. Rogers.  0.30-m f/6.7 Helin Telescope + CCD.
688 Lowell Observatory, Anderson Mesa Station.  Observer J. R. Mattox.
    Measurer L. A. Wasserman. 1.8-m reflector + CCD
699 Lowell Observatory-LONEOS.  Observers M. E. Van Ness, B. W. Koehn.
    Measurer B. W. Koehn.  0.59-m LONEOS Schmidt + CCD.

Orbital elements:
2000 EZ106
Epoch 2000 Feb. 26.0 TT = JDT 2451600.5                 Williams
M 252.31725              (2000.0)            P               Q
n   1.07910770     Peri.  312.61477     +0.66277401     +0.74862726
a   0.9413682      Node   358.53526     -0.32644939     +0.26847297
e   0.4523018      Incl.   41.58465     -0.67391499     +0.60620087
P   0.91           H   20.5           G   0.15           U   8
From 33 observations 2000 Mar. 12-22, mean residual 0".63.

Ephemeris:
2000 EZ106               a,e,i = 0.94, 0.45, 42                  q = 0.5156
Date    TT    R. A. (2000) Decl.     Delta      r     Elong.  Phase     V
2000 03 17    12 41.83   +04 50.9    0.097    1.090   166.1    12.7    16.4
2000 03 18    12 20.09   +01 37.8    0.089    1.083   172.8     6.6    15.9
2000 03 19    11 54.03   -02 15.2    0.081    1.077   177.2     2.6    15.5
2000 03 20    11 23.20   -06 46.5    0.075    1.070   168.7    10.5    15.7
2000 03 21    10 47.66   -11 43.7    0.072    1.063   158.2    20.4    15.9
2000 03 22    10 08.36   -16 41.7    0.071    1.056   146.9    31.0    16.2
2000 03 23    09 27.28   -21 09.2    0.072    1.049   135.6    41.7    16.5
2000 03 24    08 46.98   -24 43.0    0.076    1.042   125.1    51.5    16.9
2000 03 25    08 09.75   -27 16.3    0.082    1.035   115.7    60.2    17.3
2000 03 26    07 36.93   -28 56.4    0.089    1.028   107.7    67.6    17.7
2000 03 27    07 08.88   -29 56.5    0.098    1.021   101.0    73.7    18.1
2000 03 28    06 45.30   -30 29.2    0.107    1.014    95.3    78.7    18.4
2000 03 29    06 25.57   -30 44.1    0.117    1.006    90.4    82.9    18.8
2000 03 30    06 09.04   -30 48.0    0.128    0.999    86.3    86.3    19.1
2000 03 31    05 55.11   -30 45.1    0.139    0.991    82.8    89.2    19.3
2000 04 01    05 43.28   -30 38.2    0.151    0.984    79.7    91.6    19.6

2000 04 06    05 03.89   -29 44.9    0.210    0.945    68.6    99.5    20.6
2000 04 11    04 41.28   -28 49.9    0.270    0.904    61.3   103.5    21.2
2000 04 16    04 25.59   -27 55.3    0.331    0.861    55.7   105.8    21.7

Gareth V. Williams           (C) Copyright 2000 MPC           M.P.E.C. 2000-F27

Read MPEC 2000-F26 Read MPEC 2000-F28


Our Web policy. Index to the CBAT/MPC/ICQ pages.


Valid HTML 4.01!